FW5818 Weather Reports


Display with metric or nautical units.
time (UTC)temp
F
wind
direction
speed
MPH
gust
MPH
rain 1hr
in
rain 24hr
in
rain mn
in
humidity
%
barometer
mb
20260508081544 48 0 0.0 0.0 0.00 0.00 0.00 92 1016.5
20260508080044 48 0 0.0 0.0 0.00 0.00 0.00 92 1016.4
20260508074543 49 0 0.0 0.0 0.00 0.00 0.00 92 1016.5
20260508073052 49 0 0.0 0.0 0.00 0.00 0.00 92 1016.6
20260508071552 49 0 0.0 0.0 0.00 0.00 0.00 92 1016.6
20260508070051 50 0 0.0 0.0 0.00 0.00 0.00 92 1016.6
20260508064602 50 0 0.0 0.0 0.00 0.00 0.00 92 1016.7
20260508063047 51 0 0.0 0.0 0.00 0.00 0.00 92 1016.8
20260508061553 51 0 0.0 0.0 0.00 0.00 0.00 91 1017.0
20260508060051 51 0 0.0 0.0 0.00 0.00 0.00 91 1017.0
20260508054617 52 0 0.0 0.0 0.00 0.00 0.00 91 1017.0
20260508053044 52 0 0.0 0.0 0.00 0.00 0.00 91 1017.0
20260508051545 52 0 0.0 0.0 0.00 0.00 0.00 91 1017.0
20260508050052 53 0 0.0 0.0 0.00 0.00 0.00 91 1017.1
20260508044545 53 0 0.0 0.0 0.00 0.00 0.00 90 1017.2
20260508043050 53 0 0.0 0.0 0.00 0.00 0.00 90 1017.0
20260508041543 54 0 0.0 0.0 0.00 0.00 0.00 90 1017.0
20260508040057 54 0 0.0 0.0 0.00 0.00 0.00 89 1017.0
20260508034550 54 0 0.0 0.0 0.00 0.00 0.00 90 1017.0
20260508033041 55 0 0.0 0.0 0.00 0.00 0.00 89 1017.0
20260508031552 55 0 0.0 1.0 0.00 0.00 0.00 89 1016.9
20260508030055 55 0 0.0 0.0 0.00 0.00 0.00 89 1016.8
20260508024548 55 0 0.0 0.0 0.00 0.00 0.00 89 1016.8
20260508023046 56 0 0.0 0.0 0.00 0.00 0.00 88 1016.7
20260508021545 57 0 0.0 0.0 0.00 0.00 0.00 88 1016.5
20260508020051 57 0 0.0 0.0 0.00 0.00 0.00 87 1016.5
20260508014547 58 0 0.0 0.0 0.00 0.00 0.00 85 1016.2
20260508013046 59 0 0.0 0.0 0.00 0.00 0.00 84 1016.1
20260508011551 60 0 0.0 0.0 0.00 0.00 0.00 85 1016.0
20260508010051 61 0 0.0 0.0 0.00 0.00 0.00 83 1015.9
20260508004550 62 0 0.0 0.0 0.00 0.00 0.00 82 1015.8
20260508003045 62 0 0.0 0.0 0.00 0.00 0.00 81 1015.8
20260508001546 63 0 0.0 0.0 0.00 0.00 0.00 78 1015.7
20260508000107 64 0 0.0 0.0 0.00 0.00 0.00 76 1015.6
20260507234548 65 0 0.0 0.0 0.00 0.00 0.00 75 1015.7
20260507233045 66 0 0.0 1.0 0.00 0.00 0.00 72 1015.8
20260507231546 68 0 0.0 1.0 0.00 0.00 0.00 69 1016.0
20260507230049 68 0 0.0 1.0 0.00 0.00 0.00 67 1015.9
20260507224551 70 0 0.0 2.0 0.00 0.00 0.00 61 1015.8
20260507223052 70 0 0.0 6.0 0.00 0.00 0.00 52 1015.8
20260507221550 70 0 1.0 3.0 0.00 0.00 0.00 53 1015.9
20260507220052 69 24 2.0 4.0 0.00 0.00 0.00 53 1015.9
20260507214548 71 0 0.0 4.0 0.00 0.00 0.00 56 1016.0
20260507213049 70 0 0.0 4.0 0.00 0.00 0.00 54 1015.9
20260507211601 70 202 2.0 7.0 0.00 0.00 0.00 54 1016.1
20260507210052 69 0 2.0 5.0 0.00 0.00 0.00 56 1016.2
20260507204543 70 0 0.0 4.0 0.00 0.00 0.00 55 1016.4
20260507203053 69 44 2.0 6.0 0.00 0.00 0.00 55 1016.5
20260507201600 69 111 2.0 4.0 0.00 0.00 0.00 55 1016.7
20260507200051 69 253 1.0 5.0 0.00 0.00 0.00 53 1016.8
20260507194549 69 252 2.0 9.0 0.00 0.03 0.00 56 1017.1
20260507193057 67 0 0.0 4.0 0.00 0.03 0.00 57 1017.5
20260507191550 66 245 0.0 5.0 0.00 0.03 0.00 58 1017.5
20260507190047 66 193 2.0 6.0 0.00 0.03 0.00 57 1017.7
20260507184549 66 227 0.0 4.0 0.00 0.08 0.00 59 1017.8
20260507183048 66 0 0.0 4.0 0.00 0.08 0.00 60 1018.0
20260507181551 66 224 1.0 4.0 0.00 0.08 0.00 60 1018.3
20260507180050 66 62 1.0 10.0 0.00 0.08 0.00 54 1018.5
20260507174611 66 200 2.0 8.0 0.00 0.13 0.00 53 1018.8
20260507173044 65 226 1.0 7.0 0.00 0.13 0.00 60 1018.9
20260507171600 65 245 1.0 6.0 0.00 0.13 0.00 62 1019.0
20260507170048 64 144 2.0 6.0 0.00 0.13 0.00 58 1019.2
20260507164552 64 235 1.0 8.0 0.00 0.13 0.00 63 1019.4
20260507163049 62 35 1.0 3.0 0.00 0.13 0.00 64 1019.6
20260507161557 62 214 2.0 8.0 0.00 0.13 0.00 64 1019.7
20260507160109 61 0 1.0 4.0 0.00 0.13 0.00 66 1019.9
20260507154548 59 0 0.0 6.0 0.00 0.13 0.00 71 1019.8
20260507153049 59 0 0.0 6.0 0.00 0.13 0.00 74 1019.8
20260507151556 58 238 1.0 5.0 0.00 0.13 0.00 75 1019.9
20260507150048 57 30 1.0 4.0 0.00 0.13 0.00 80 1019.8
20260507144546 56 44 2.0 5.0 0.00 0.13 0.00 83 1019.7
20260507143045 55 0 0.0 5.0 0.00 0.13 0.00 85 1019.7
20260507141547 54 34 1.0 4.0 0.00 0.13 0.00 87 1019.6
20260507140053 53 5 1.0 7.0 0.00 0.13 0.00 87 1019.6
20260507134543 52 11 2.0 9.0 0.00 0.14 0.00 89 1019.4
20260507133051 51 0 1.0 5.0 0.00 0.14 0.00 92 1019.4
20260507131612 51 18 1.0 7.0 0.00 0.14 0.00 94 1019.4
20260507130047 50 18 2.0 5.0 0.00 0.14 0.00 95 1019.0
20260507124552 49 0 0.0 3.0 0.00 0.32 0.00 96 1018.8
20260507123046 49 0 0.0 3.0 0.00 0.32 0.00 96 1019.2
20260507121543 48 0 0.0 2.0 0.00 0.32 0.00 96 1019.1
20260507120046 48 0 0.0 3.0 0.00 0.32 0.00 96 1018.7
20260507114543 48 0 0.0 4.0 0.00 0.70 0.00 96 1018.6
20260507113114 48 32 0.0 2.0 0.00 0.70 0.00 96 1018.4
20260507111546 48 0 0.0 3.0 0.00 0.70 0.00 96 1018.1
20260507110047 48 32 0.0 2.0 0.00 0.70 0.00 96 1018.1
20260507104558 48 0 0.0 4.0 0.00 0.90 0.00 96 1017.8
20260507103043 48 0 0.0 3.0 0.00 0.90 0.00 96 1017.9
20260507101542 48 0 0.0 0.0 0.00 0.90 0.00 95 1017.6
20260507100055 48 22 0.0 0.0 0.00 0.90 0.00 95 1017.7
20260507094548 49 0 0.0 0.0 0.00 0.90 0.00 96 1017.2
20260507093047 49 0 0.0 2.0 0.00 0.90 0.00 96 1017.6
20260507091548 49 0 0.0 1.0 0.00 0.90 0.00 96 1017.7
20260507090045 49 0 0.0 3.0 0.00 0.90 0.00 96 1017.7
20260507084551 49 0 0.0 0.0 0.00 0.99 0.00 96 1017.7
20260507083047 49 0 0.0 0.0 0.00 0.99 0.00 95 1017.5